Time,TemperatureF,DewpointF,PressureIn,WindDirection,WindDirectionDegrees,WindSpeedMPH,WindSpeedGustMPH,Humidity,HourlyPrecipIn,Conditions,Clouds,dailyrainin,SoftwareType,DateUTC
2013-05-13 00:01:00,61.0,23.0,-100.00,West,280,3.0,7.0,23,-99.99,,,-99.99,,2013-05-13 06:01:00,
2013-05-13 00:11:00,61.0,23.0,-100.00,WNW,285,4.0,6.0,23,-99.99,,,-99.99,,2013-05-13 06:11:00,
2013-05-13 00:21:00,61.0,23.0,-100.00,WNW,290,3.0,4.0,23,-99.99,,,-99.99,,2013-05-13 06:21:00,
2013-05-13 00:31:00,60.0,23.0,-100.00,WNW,300,1.0,4.0,23,-99.99,,,-99.99,,2013-05-13 06:31:00,
2013-05-13 00:42:00,61.0,24.0,-100.00,NNW,335,1.0,4.0,23,-99.99,,,-99.99,,2013-05-13 06:42:00,
2013-05-13 00:52:00,61.0,24.0,-100.00,NW,305,1.0,3.0,23,-99.99,,,-99.99,,2013-05-13 06:52:00,
2013-05-13 01:01:00,60.0,23.0,-100.00,West,275,2.0,4.0,23,-99.99,,,-99.99,,2013-05-13 07:01:00,
2013-05-13 01:11:00,60.0,23.0,-100.00,WSW,250,0.0,3.0,23,-99.99,,,-99.99,,2013-05-13 07:11:00,
2013-05-13 01:21:00,61.0,24.0,-100.00,West,260,1.0,2.0,23,-99.99,,,-99.99,,2013-05-13 07:21:00,
2013-05-13 01:31:00,61.0,24.0,-100.00,NW,305,2.0,3.0,23,-99.99,,,-99.99,,2013-05-13 07:31:00,
2013-05-13 01:41:00,61.0,24.0,-100.00,WSW,255,1.0,3.0,23,-99.99,,,-99.99,,2013-05-13 07:41:00,
2013-05-13 01:51:00,60.0,23.0,-100.00,WSW,255,3.0,4.0,23,-99.99,,,-99.99,,2013-05-13 07:51:00,
2013-05-13 02:01:00,58.0,23.0,-100.00,SW,225,7.0,9.0,25,-99.99,,,-99.99,,2013-05-13 08:01:00,
2013-05-13 02:11:00,53.0,22.0,-100.00,SSE,160,1.0,9.0,28,-99.99,,,-99.99,,2013-05-13 08:11:00,
2013-05-13 02:21:00,52.0,21.0,-100.00,ESE,105,3.0,4.0,29,-99.99,,,-99.99,,2013-05-13 08:21:00,
2013-05-13 02:31:00,51.0,22.0,-100.00,SE,145,1.0,4.0,31,-99.99,,,-99.99,,2013-05-13 08:31:00,
2013-05-13 02:41:00,51.0,22.0,-100.00,SE,140,1.0,3.0,31,-99.99,,,-99.99,,2013-05-13 08:41:00,
2013-05-13 02:51:00,51.0,23.0,-100.00,SSW,210,3.0,5.0,32,-99.99,,,-99.99,,2013-05-13 08:51:00,
2013-05-13 03:01:00,55.0,25.0,-100.00,SSW,195,1.0,4.0,31,-99.99,,,-99.99,,2013-05-13 09:01:00,
2013-05-13 03:11:00,55.0,25.0,-100.00,SSW,195,1.0,3.0,30,-99.99,,,-99.99,,2013-05-13 09:11:00,
2013-05-13 03:21:00,54.0,25.0,-100.00,South,175,6.0,9.0,31,-99.99,,,-99.99,,2013-05-13 09:21:00,
2013-05-13 03:32:00,56.0,25.0,-100.00,SW,215,6.0,11.0,30,-99.99,,,-99.99,,2013-05-13 09:32:00,
2013-05-13 03:42:00,54.0,24.0,-100.00,SSE,160,4.0,11.0,31,-99.99,,,-99.99,,2013-05-13 09:42:00,
2013-05-13 03:52:00,53.0,24.0,-100.00,SW,220,3.0,6.0,32,-99.99,,,-99.99,,2013-05-13 09:52:00,
2013-05-13 04:02:00,53.0,24.0,-100.00,SE,125,0.0,4.0,32,-99.99,,,-99.99,,2013-05-13 10:02:00,
2013-05-13 04:12:00,50.0,23.0,-100.00,SE,130,2.0,4.0,34,-99.99,,,-99.99,,2013-05-13 10:12:00,
2013-05-13 04:22:00,48.0,23.0,-100.00,SE,140,4.0,5.0,36,-99.99,,,-99.99,,2013-05-13 10:22:00,
2013-05-13 04:32:00,50.0,24.0,-100.00,South,185,6.0,8.0,35,-99.99,,,-99.99,,2013-05-13 10:32:00,
2013-05-13 04:42:00,50.0,24.0,-100.00,SSE,165,6.0,8.0,35,-99.99,,,-99.99,,2013-05-13 10:42:00,
2013-05-13 04:52:00,51.0,24.0,-100.00,SE,145,4.0,6.0,35,-99.99,,,-99.99,,2013-05-13 10:52:00,
2013-05-13 05:02:00,50.0,24.0,-100.00,East,95,2.0,4.0,36,-99.99,,,-99.99,,2013-05-13 11:02:00,
2013-05-13 05:12:00,50.0,24.0,-100.00,East,90,2.0,3.0,35,-99.99,,,-99.99,,2013-05-13 11:12:00,
2013-05-13 05:21:00,49.0,24.0,-100.00,ESE,115,6.0,6.0,36,-99.99,,,-99.99,,2013-05-13 11:21:00,
2013-05-13 05:32:00,48.0,23.0,-100.00,ESE,115,4.0,6.0,37,-99.99,,,-99.99,,2013-05-13 11:32:00,
2013-05-13 05:41:00,49.0,24.0,-100.00,ESE,115,4.0,6.0,37,-99.99,,,-99.99,,2013-05-13 11:41:00,
2013-05-13 05:51:00,48.0,23.0,-100.00,East,100,7.0,7.0,38,-99.99,,,-99.99,,2013-05-13 11:51:00,
2013-05-13 06:01:00,45.0,23.0,-100.00,East,95,9.0,9.0,40,-99.99,,,-99.99,,2013-05-13 12:01:00,
2013-05-13 06:11:00,44.0,23.0,-100.00,East,95,9.0,10.0,42,-99.99,,,-99.99,,2013-05-13 12:11:00,
2013-05-13 06:21:00,45.0,24.0,-100.00,East,95,6.0,9.0,43,-99.99,,,-99.99,,2013-05-13 12:21:00,
2013-05-13 06:32:00,48.0,25.0,-100.00,SE,125,6.0,7.0,40,-99.99,,,-99.99,,2013-05-13 12:32:00,
2013-05-13 06:41:00,49.0,26.0,-100.00,North,-999,-999.0,-999.0,39,-99.99,,,-99.99,,2013-05-13 12:41:00,
2013-05-13 06:51:00,50.0,26.0,-100.00,ESE,105,6.0,6.0,38,-99.99,,,-99.99,,2013-05-13 12:51:00,
2013-05-13 07:01:00,49.0,26.0,-100.00,East,95,8.0,9.0,41,-99.99,,,-99.99,,2013-05-13 13:01:00,
2013-05-13 07:11:00,49.0,27.0,-100.00,East,100,8.0,10.0,42,-99.99,,,-99.99,,2013-05-13 13:11:00,
2013-05-13 07:21:00,49.0,27.0,-100.00,East,95,7.0,9.0,42,-99.99,,,-99.99,,2013-05-13 13:21:00,
2013-05-13 07:31:00,51.0,28.0,-100.00,East,95,7.0,9.0,41,-99.99,,,-99.99,,2013-05-13 13:31:00,
2013-05-13 07:41:00,51.0,28.0,-100.00,ESE,105,9.0,9.0,40,-99.99,,,-99.99,,2013-05-13 13:41:00,
2013-05-13 07:51:00,52.0,29.0,-100.00,ESE,105,7.0,9.0,40,-99.99,,,-99.99,,2013-05-13 13:51:00,
2013-05-13 08:01:00,52.0,29.0,-100.00,ESE,110,7.0,9.0,40,-99.99,,,-99.99,,2013-05-13 14:01:00,
2013-05-13 08:11:00,54.0,30.0,-100.00,East,80,9.0,11.0,40,-99.99,,,-99.99,,2013-05-13 14:11:00,
2013-05-13 08:31:00,56.0,31.0,-100.00,East,90,7.0,9.0,38,-99.99,,,-99.99,,2013-05-13 14:31:00,
2013-05-13 08:41:00,58.0,32.0,-100.00,East,90,7.0,10.0,37,-99.99,,,-99.99,,2013-05-13 14:41:00,
2013-05-13 08:51:00,60.0,33.0,-100.00,SE,130,8.0,11.0,35,-99.99,,,-99.99,,2013-05-13 14:51:00,
2013-05-13 09:01:00,63.0,34.0,-100.00,ESE,120,6.0,9.0,33,-99.99,,,-99.99,,2013-05-13 15:01:00,
2013-05-13 09:11:00,65.0,34.0,-100.00,SE,145,6.0,9.0,31,-99.99,,,-99.99,,2013-05-13 15:11:00,
2013-05-13 09:21:00,68.0,33.0,-100.00,SE,145,7.0,9.0,27,-99.99,,,-99.99,,2013-05-13 15:21:00,
2013-05-13 09:31:00,68.0,32.0,-100.00,South,170,7.0,10.0,26,-99.99,,,-99.99,,2013-05-13 15:31:00,
2013-05-13 09:42:00,69.0,33.0,-100.00,South,185,6.0,7.0,25,-99.99,,,-99.99,,2013-05-13 15:42:00,
2013-05-13 09:52:00,70.0,33.0,-100.00,South,170,4.0,8.0,25,-99.99,,,-99.99,,2013-05-13 15:52:00,
2013-05-13 10:03:00,73.0,33.0,-100.00,SW,215,1.0,7.0,23,-99.99,,,-99.99,,2013-05-13 16:03:00,
2013-05-13 10:11:00,74.0,33.0,-100.00,SE,135,1.0,6.0,22,-99.99,,,-99.99,,2013-05-13 16:11:00,
2013-05-13 10:21:00,76.0,33.0,-100.00,NE,35,0.0,-999.0,20,-99.99,,,-99.99,,2013-05-13 16:21:00,
2013-05-13 10:33:00,77.0,32.0,-100.00,WNW,295,1.0,8.0,19,-99.99,,,-99.99,,2013-05-13 16:33:00,
2013-05-13 10:42:00,76.0,30.0,-100.00,West,260,2.0,8.0,18,-99.99,,,-99.99,,2013-05-13 16:42:00,
2013-05-13 10:52:00,76.0,31.0,-100.00,WNW,295,3.0,7.0,19,-99.99,,,-99.99,,2013-05-13 16:52:00,
2013-05-13 11:02:00,74.0,29.0,-100.00,North,10,2.0,10.0,18,-99.99,,,-99.99,,2013-05-13 17:02:00,
2013-05-13 11:12:00,75.0,29.0,-100.00,NNW,330,7.0,14.0,18,-99.99,,,-99.99,,2013-05-13 17:12:00,
2013-05-13 11:21:00,73.0,29.0,-100.00,North,5,6.0,12.0,19,-99.99,,,-99.99,,2013-05-13 17:21:00,
2013-05-13 11:32:00,75.0,29.0,-100.00,NW,315,6.0,12.0,18,-99.99,,,-99.99,,2013-05-13 17:32:00,
2013-05-13 11:41:00,77.0,30.0,-100.00,WNW,290,4.0,6.0,18,-99.99,,,-99.99,,2013-05-13 17:41:00,
2013-05-13 11:54:00,76.0,29.0,-100.00,NNW,345,1.0,12.0,18,-99.99,,,-99.99,,2013-05-13 17:54:00,
2013-05-13 12:03:00,74.0,28.0,-100.00,WNW,290,4.0,9.0,18,-99.99,,,-99.99,,2013-05-13 18:03:00,
2013-05-13 12:12:00,77.0,29.0,-100.00,WSW,240,0.0,8.0,17,-99.99,,,-99.99,,2013-05-13 18:12:00,
2013-05-13 12:22:00,79.0,31.0,-100.00,NNE,25,1.0,5.0,17,-99.99,,,-99.99,,2013-05-13 18:22:00,
2013-05-13 12:32:00,77.0,29.0,-100.00,North,355,6.0,9.0,17,-99.99,,,-99.99,,2013-05-13 18:32:00,
2013-05-13 12:42:00,77.0,30.0,-100.00,NNE,15,4.0,9.0,18,-99.99,,,-99.99,,2013-05-13 18:42:00,
2013-05-13 12:51:00,79.0,31.0,-100.00,SW,235,9.0,12.0,17,-99.99,,,-99.99,,2013-05-13 18:51:00,
2013-05-13 13:01:00,76.0,29.0,-100.00,SSW,205,3.0,12.0,18,-99.99,,,-99.99,,2013-05-13 19:01:00,
2013-05-13 13:11:00,76.0,29.0,-100.00,South,185,7.0,12.0,18,-99.99,,,-99.99,,2013-05-13 19:11:00,
2013-05-13 13:21:00,78.0,30.0,-100.00,NNW,330,6.0,14.0,17,-99.99,,,-99.99,,2013-05-13 19:21:00,
2013-05-13 13:32:00,79.0,31.0,-100.00,SSE,160,10.0,17.0,17,-99.99,,,-99.99,,2013-05-13 19:32:00,
2013-05-13 13:43:00,78.0,31.0,-100.00,SW,215,9.0,16.0,17,-99.99,,,-99.99,,2013-05-13 19:43:00,
2013-05-13 13:52:00,80.0,30.0,-100.00,NW,315,7.0,21.0,16,-99.99,,,-99.99,,2013-05-13 19:52:00,
2013-05-13 14:01:00,78.0,29.0,-100.00,West,260,14.0,22.0,16,-99.99,,,-99.99,,2013-05-13 20:01:00,
2013-05-13 14:11:00,80.0,30.0,-100.00,West,260,7.0,21.0,16,-99.99,,,-99.99,,2013-05-13 20:11:00,
2013-05-13 14:23:00,79.0,29.0,-100.00,West,270,19.0,24.0,16,-99.99,,,-99.99,,2013-05-13 20:23:00,
2013-05-13 14:33:00,78.0,29.0,-100.00,West,280,16.0,24.0,16,-99.99,,,-99.99,,2013-05-13 20:33:00,
2013-05-13 14:44:00,81.0,30.0,-100.00,WNW,295,12.0,20.0,15,-99.99,,,-99.99,,2013-05-13 20:44:00,
2013-05-13 14:53:00,81.0,30.0,-100.00,NW,310,5.0,18.0,15,-99.99,,,-99.99,,2013-05-13 20:53:00,
2013-05-13 15:02:00,82.0,29.0,-100.00,WNW,300,10.0,20.0,14,-99.99,,,-99.99,,2013-05-13 21:02:00,
2013-05-13 15:14:00,82.0,29.0,-100.00,NW,305,12.0,22.0,14,-99.99,,,-99.99,,2013-05-13 21:14:00,
2013-05-13 15:22:00,80.0,29.0,-100.00,West,280,12.0,22.0,15,-99.99,,,-99.99,,2013-05-13 21:22:00,
2013-05-13 15:33:00,80.0,29.0,-100.00,West,260,6.0,12.0,15,-99.99,,,-99.99,,2013-05-13 21:33:00,
2013-05-13 15:43:00,80.0,28.0,-100.00,West,260,4.0,9.0,15,-99.99,,,-99.99,,2013-05-13 21:43:00,
2013-05-13 15:52:00,82.0,29.0,-100.00,NW,305,6.0,15.0,14,-99.99,,,-99.99,,2013-05-13 21:52:00,
2013-05-13 16:02:00,82.0,29.0,-100.00,NW,315,10.0,14.0,14,-99.99,,,-99.99,,2013-05-13 22:02:00,
2013-05-13 16:12:00,80.0,29.0,-100.00,WNW,285,4.0,12.0,15,-99.99,,,-99.99,,2013-05-13 22:12:00,
2013-05-13 16:22:00,78.0,26.0,-100.00,WNW,285,14.0,19.0,14,-99.99,,,-99.99,,2013-05-13 22:22:00,
2013-05-13 16:32:00,77.0,26.0,-100.00,WNW,290,11.0,17.0,15,-99.99,,,-99.99,,2013-05-13 22:32:00,
2013-05-13 16:42:00,77.0,26.0,-100.00,WNW,285,8.0,12.0,15,-99.99,,,-99.99,,2013-05-13 22:42:00,
2013-05-13 16:52:00,78.0,27.0,-100.00,WSW,240,9.0,12.0,15,-99.99,,,-99.99,,2013-05-13 22:52:00,
2013-05-13 17:01:00,77.0,27.0,-100.00,West,265,15.0,18.0,15,-99.99,,,-99.99,,2013-05-13 23:01:00,
2013-05-13 17:12:00,82.0,29.0,-100.00,WNW,290,14.0,26.0,14,-99.99,,,-99.99,,2013-05-13 23:12:00,
2013-05-13 17:23:00,80.0,28.0,-100.00,WSW,250,17.0,25.0,14,-99.99,,,-99.99,,2013-05-13 23:23:00,
2013-05-13 17:33:00,79.0,27.0,-100.00,West,265,22.0,28.0,14,-99.99,,,-99.99,,2013-05-13 23:33:00,
2013-05-13 17:42:00,80.0,29.0,-100.00,West,265,21.0,26.0,15,-99.99,,,-99.99,,2013-05-13 23:42:00,
2013-05-13 17:53:00,79.0,28.0,-100.00,West,280,14.0,26.0,15,-99.99,,,-99.99,,2013-05-13 23:53:00,
2013-05-13 18:02:00,80.0,29.0,-100.00,West,280,10.0,18.0,15,-99.99,,,-99.99,,2013-05-14 00:02:00,
2013-05-13 18:12:00,79.0,27.0,-100.00,WSW,255,16.0,24.0,14,-99.99,,,-99.99,,2013-05-14 00:12:00,
2013-05-13 18:22:00,78.0,27.0,-100.00,WSW,250,18.0,28.0,15,-99.99,,,-99.99,,2013-05-14 00:22:00,
2013-05-13 18:31:00,77.0,27.0,-100.00,WSW,255,16.0,26.0,15,-99.99,,,-99.99,,2013-05-14 00:31:00,
2013-05-13 18:41:00,78.0,27.0,-100.00,West,270,18.0,26.0,15,-99.99,,,-99.99,,2013-05-14 00:41:00,
2013-05-13 18:51:00,78.0,27.0,-100.00,West,260,16.0,29.0,15,-99.99,,,-99.99,,2013-05-14 00:51:00,
2013-05-13 19:01:00,77.0,26.0,-100.00,West,265,15.0,26.0,15,-99.99,,,-99.99,,2013-05-14 01:01:00,
2013-05-13 19:11:00,77.0,27.0,-100.00,West,275,15.0,21.0,15,-99.99,,,-99.99,,2013-05-14 01:11:00,
2013-05-13 19:21:00,77.0,26.0,-100.00,West,275,17.0,22.0,15,-99.99,,,-99.99,,2013-05-14 01:21:00,
2013-05-13 19:31:00,76.0,26.0,-100.00,West,280,15.0,19.0,15,-99.99,,,-99.99,,2013-05-14 01:31:00,
2013-05-13 19:43:00,76.0,26.0,-100.00,West,265,15.0,24.0,15,-99.99,,,-99.99,,2013-05-14 01:43:00,
2013-05-13 19:52:00,75.0,25.0,-100.00,West,275,16.0,21.0,15,-99.99,,,-99.99,,2013-05-14 01:52:00,
2013-05-13 20:01:00,74.0,26.0,-100.00,West,270,11.0,17.0,16,-99.99,,,-99.99,,2013-05-14 02:01:00,
2013-05-13 20:11:00,74.0,26.0,-100.00,West,280,9.0,14.0,16,-99.99,,,-99.99,,2013-05-14 02:11:00,
2013-05-13 20:21:00,73.0,26.0,-100.00,West,270,9.0,12.0,17,-99.99,,,-99.99,,2013-05-14 02:21:00,
2013-05-13 20:31:00,71.0,25.0,-100.00,West,270,8.0,12.0,17,-99.99,,,-99.99,,2013-05-14 02:31:00,
2013-05-13 20:42:00,70.0,25.0,-100.00,West,270,7.0,12.0,18,-99.99,,,-99.99,,2013-05-14 02:42:00,
2013-05-13 20:51:00,69.0,24.0,-100.00,West,275,7.0,11.0,18,-99.99,,,-99.99,,2013-05-14 02:51:00,
2013-05-13 21:01:00,68.0,24.0,-100.00,West,270,6.0,9.0,18,-99.99,,,-99.99,,2013-05-14 03:01:00,
2013-05-13 21:11:00,68.0,24.0,-100.00,West,275,8.0,11.0,18,-99.99,,,-99.99,,2013-05-14 03:11:00,
2013-05-13 21:21:00,68.0,24.0,-100.00,West,280,8.0,12.0,18,-99.99,,,-99.99,,2013-05-14 03:21:00,
2013-05-13 21:32:00,67.0,23.0,-100.00,West,270,6.0,10.0,18,-99.99,,,-99.99,,2013-05-14 03:32:00,
2013-05-13 21:42:00,67.0,23.0,-100.00,West,270,7.0,11.0,18,-99.99,,,-99.99,,2013-05-14 03:42:00,
2013-05-13 21:52:00,67.0,23.0,-100.00,West,265,7.0,10.0,18,-99.99,,,-99.99,,2013-05-14 03:52:00,
2013-05-13 22:02:00,67.0,23.0,-100.00,West,275,7.0,12.0,18,-99.99,,,-99.99,,2013-05-14 04:02:00,
2013-05-13 22:12:00,66.0,23.0,-100.00,WNW,285,7.0,11.0,19,-99.99,,,-99.99,,2013-05-14 04:12:00,
2013-05-13 22:22:00,65.0,22.0,-100.00,WNW,285,7.0,11.0,19,-99.99,,,-99.99,,2013-05-14 04:22:00,
2013-05-13 22:32:00,66.0,23.0,-100.00,West,265,13.0,19.0,19,-99.99,,,-99.99,,2013-05-14 04:32:00,
2013-05-13 22:42:00,68.0,24.0,-100.00,WSW,245,15.0,21.0,18,-99.99,,,-99.99,,2013-05-14 04:42:00,
2013-05-13 22:52:00,64.0,22.0,-100.00,WSW,245,15.0,18.0,19,-99.99,,,-99.99,,2013-05-14 04:52:00,
2013-05-13 23:01:00,66.0,23.0,-100.00,WSW,250,17.0,20.0,19,-99.99,,,-99.99,,2013-05-14 05:01:00,
2013-05-13 23:11:00,66.0,23.0,-100.00,WSW,245,16.0,21.0,19,-99.99,,,-99.99,,2013-05-14 05:11:00,
2013-05-13 23:21:00,63.0,22.0,-100.00,WSW,250,13.0,19.0,19,-99.99,,,-99.99,,2013-05-14 05:21:00,
2013-05-13 23:32:00,63.0,22.0,-100.00,WSW,245,13.0,17.0,19,-99.99,,,-99.99,,2013-05-14 05:32:00,
2013-05-13 23:42:00,62.0,21.0,-100.00,WSW,240,14.0,16.0,20,-99.99,,,-99.99,,2013-05-14 05:42:00,
2013-05-13 23:52:00,62.0,22.0,-100.00,SW,235,12.0,19.0,20,-99.99,,,-99.99,,2013-05-14 05:52:00,